Location: Czu?�w
(50.1404°N, 18.9919°E)
Time: 03:01:40
(UTC+00:00)

CZ-4C R/B - Pass Details

Date: 27 October 2020
Orbit: 409 x 489 km, 97.7° (Epoch: 27 November)

Event Time Altitude Azimuth Distance (km) Brightness Sun altitude
Rises 15:55:02 0° 10° (N) 2,389 6.3 -4.9°
Reaches altitude 10° 15:57:02 10° 7° (N) 1,529 5.4 -5.2°
Maximum altitude 16:00:15 61° 287° (WNW) 500 3.5 -5.7°
Drops below altitude 10° 16:03:32 10° 206° (SSW) 1,555 6.2 -6.2°
Sets 16:05:35 0° 203° (SSW) 2,435 7.2 -6.5°
